Location: ?????
(30.4569°N, 47.8921°E)
Time: 04:35:33
(UTC+00:00)

Cosmos 2360 Rocket - Pass Details

Date: 07 June 2020
Orbit: 832 x 846 km, 71.0° (Epoch: 03 July)

Event Time Altitude Azimuth Distance (km) Brightness Sun altitude
Exits shadow 00:43:53 - 274° (W) 2,590 4.3 -12.2°
Reaches altitude 10° 00:44:53 10° 283° (WNW) 2,444 4.2 -12.0°
Maximum altitude 00:46:48 12° 303° (WNW) 2,326 4.3 -11.7°
Drops below altitude 10° 00:48:45 10° 324° (NW) 2,450 4.6 -11.4°
Sets 00:53:07 0° 356° (N) 3,392 5.8 -10.6°
